Weather History for KCPS - September, 2013

Change the Weather History Date:

Wednesday, September 18, 2013

  Actual Average Record
Temperature  
Mean Temperature 77 °F -  
Max Temperature 89 °F 75 °F 95 °F (1953)
Min Temperature 66 °F 63 °F 44 °F (1999)
Cooling Degree Days 12    
Growing Degree Days 27 (Base 50)    
Moisture  
Dew Point 67 °F    
Average Humidity 83    
Maximum Humidity 96    
Minimum Humidity 48    
Precipitation  
Precipitation 0.44 in - - ()
Sea Level Pressure  
Sea Level Pressure 30.02 in    
Wind  
Wind Speed 4 mph (SSE)    
Max Wind Speed 12 mph    
Max Gust Speed -    
Visibility 7 miles    
Events Rain    
Averages and records for this station are not official NWS values.
T = Trace of Precipitation, MM = Missing Value Source: NWS Daily Summary

Daily Weather History Graph

Daily Weather History Graph

Search for Another Location

Airport or City:

Trip Planner

Search our weather history database for the weather conditions in past years. The results will help you decide how hot, cold, wet, or windy it might be!

Date:

Astronomy

Sep. 18, 2013 Rise Set
Actual Time 6:45 AM CDT 7:03 PM CDT
Civil Twilight 6:18 AM CDT 7:30 PM CDT
Nautical Twilight 5:47 AM CDT 8:01 PM CDT
Astronomical Twilight 5:15 AM CDT 8:32 PM CDT
Moon 6:26 PM CDT (9/18) 5:47 AM CDT (9/18)
Length of Visible Light 13h 11m
Length of Day
12h 18m
Waxing Gibbous, 99% of the Moon is Illuminated
Sep 18
Waxing Gibbous
Sep 19
Full
Sep 26
Last Quarter
Oct 4
New
Oct 11
First Quarter

Hourly Weather History & Observations

Time (CDT) Temp. Heat Index Dew Point Humidity Pressure Visibility Wind Dir Wind Speed Gust Speed Precip Events Conditions
12:53 AM 66.0 °F - 61.0 °F 84% 30.06 in 10.0 mi SSE 4.6 mph - N/A   Mostly Cloudy
1:53 AM 66.0 °F - 61.0 °F 84% 30.07 in 10.0 mi Calm Calm - 0.00 in   Mostly Cloudy
2:53 AM 66.0 °F - 63.0 °F 90% 30.08 in 5.0 mi Calm Calm - 0.02 in Rain Rain
3:53 AM 66.0 °F - 63.0 °F 90% 30.07 in 5.0 mi ENE 3.5 mph - 0.06 in Rain Light Rain
4:53 AM 66.0 °F - 64.0 °F 93% 30.07 in 3.0 mi Calm Calm - 0.06 in Rain Rain
5:09 AM 66.2 °F - 64.4 °F 94% 30.08 in 2.5 mi South 4.6 mph - 0.04 in Rain Rain
5:20 AM 66.2 °F - 64.4 °F 94% 30.07 in 1.5 mi SE 8.1 mph - 0.14 in Rain Heavy Rain
5:27 AM 66.2 °F - 64.4 °F 94% 30.07 in 3.0 mi SE 4.6 mph - 0.14 in Rain Light Rain
5:53 AM 66.0 °F - 64.0 °F 93% 30.06 in 5.0 mi SSE 6.9 mph - 0.18 in   Overcast
6:53 AM 66.9 °F - 64.0 °F 90% 30.06 in 6.0 mi SSE 5.8 mph - N/A   Overcast
7:53 AM 66.9 °F - 64.0 °F 90% 30.07 in 5.0 mi South 5.8 mph - 0.02 in   Overcast
8:53 AM 68.0 °F - 64.9 °F 90% 30.07 in 6.0 mi SE 6.9 mph - N/A   Mostly Cloudy
9:53 AM 72.0 °F - 66.9 °F 84% 30.08 in 9.0 mi SE 6.9 mph - N/A   Clear
10:53 AM 73.9 °F - 66.9 °F 79% 30.06 in 10.0 mi SSE 8.1 mph - N/A   Partly Cloudy
11:53 AM 79.0 °F - 68.0 °F 69% 30.05 in 10.0 mi SE 8.1 mph - N/A   Partly Cloudy
12:53 PM 82.9 °F 86.5 °F 69.1 °F 63% 30.03 in 10.0 mi Variable 4.6 mph - N/A   Clear
1:53 PM 84.9 °F 87.6 °F 66.9 °F 55% 29.99 in 10.0 mi Variable 3.5 mph - N/A   Clear
2:53 PM 88.0 °F 90.3 °F 66.0 °F 48% 29.98 in 10.0 mi Calm Calm - N/A   Scattered Clouds
3:53 PM 86.0 °F 89.4 °F 68.0 °F 55% 29.96 in 10.0 mi SSW 8.1 mph - N/A   Mostly Cloudy
4:53 PM 77.0 °F - 70.0 °F 79% 29.98 in 5.0 mi West 11.5 mph - 0.02 in Rain Rain
5:09 PM 75.2 °F - 71.6 °F 89% 29.98 in 2.0 mi WNW 3.5 mph - 0.07 in Rain Heavy Rain
5:20 PM 77.0 °F - 73.4 °F 89% 29.97 in 6.0 mi Calm Calm - 0.08 in Rain Light Rain
5:53 PM 77.0 °F - 73.0 °F 88% 29.95 in 7.0 mi Calm Calm - 0.08 in   Clear
6:53 PM 75.0 °F - 72.0 °F 90% 29.96 in 10.0 mi Calm Calm - N/A   Clear
7:53 PM 73.0 °F - 72.0 °F 96% 29.96 in 10.0 mi SSE 3.5 mph - N/A   Clear
8:53 PM 73.0 °F - 70.0 °F 90% 29.97 in 10.0 mi South 4.6 mph - N/A   Clear
9:53 PM 75.0 °F - 68.0 °F 79% 29.97 in 10.0 mi SSE 3.5 mph - N/A   Clear
10:53 PM 73.0 °F - 68.0 °F 84% 29.97 in 10.0 mi SSE 4.6 mph - N/A   Clear
11:53 PM 72.0 °F - 66.9 °F 84% 29.97 in 10.0 mi SSE 4.6 mph - N/A   Clear